[[{"header":{"parameterUnit":"m.s-1","parameterCategory":1,"la1":30.2991,"la2":30.254,"lo1":-89.0895,"lo2":-89.0444,"dy":0.0017,"dx":0.0017,"nx":28,"ny":28,"refTime":"2025-01-25T09:00:00:Z","depth":0,"parameterNumber":2,"parameterNumberName":"U-component_of_WINDS"},"data":[0,0,0,0,0,0,0,0,0,0,0,0,0,0,0,0,0,0,0,0,0,0,0,0,0,0,0,0,0,0,0,0,0,0,0,0,0,0,0,0,0,0,0,0,0,0,0,0,0,0,0,0,0,0,0,0,0,0,-4.4369,-4.4369,0,-4.4356,-4.4356,-4.4356,-4.4223,-4.422,-4.4217,-4.4213,-4.4204,-4.4206,-4.4209,0,0,0,0,0,0,0,0,0,0,0,0,0,-4.4281,-4.4283,-4.4369,-4.4369,-4.4369,-4.4356,-4.4356,-4.4356,-4.4224,-4.422,-4.4216,-4.4212,-4.4203,-4.4206,-4.421,0,0,0,0,0,0,0,0,0,0,0,0,0,-4.4299,-4.4284,-4.4369,-4.4301,-4.4295,-4.4357,-4.4356,-4.4356,-4.4225,-4.422,-4.4215,-4.421,-4.4202,-4.4206,-4.421,-4.4337,0,0,-4.4223,-4.4225,0,0,0,0,0,0,0,0,-4.4298,-4.4303,-4.4311,-4.4306,-4.4299,-4.4286,-4.4322,-4.435,-4.4226,-4.4251,-4.4213,-4.4207,-4.4235,-4.4237,-4.4245,-4.4336,-4.4336,-4.4223,-4.4226,-4.4228,-4.4229,0,0,0,0,0,0,0,-4.4297,-4.4302,-4.4364,-4.4311,-4.4304,-4.4272,-4.4269,-4.4326,-4.4272,-4.4249,-4.4239,-4.4239,-4.4231,-4.4242,-4.4244,-4.4336,-4.4223,-4.4227,-4.423,-4.4231,-4.4531,-4.4536,0,0,0,0,0,0,-4.4305,-4.4302,-4.4364,-4.4364,-4.4286,-4.4278,-4.4274,-4.4295,-4.4271,-4.4262,-4.4244,-4.4233,-4.4237,-4.4239,-4.4243,-4.4391,-4.4228,-4.4232,-4.4234,-4.4526,-4.4532,-4.4538,0,0,0,0,0,0,-4.4304,-4.4312,-4.4365,-4.433,-4.4334,-4.4285,-4.4309,-4.4298,-4.4308,-4.4267,-4.4257,-4.4264,-4.4233,-4.4237,-4.4314,-4.4388,-4.4234,-4.4238,-4.4519,-4.4528,-4.4535,-4.4686,0,0,0,0,0,0,-4.4302,-4.4312,-4.4359,-4.4332,-4.4337,-4.4436,-4.4314,-4.4301,-4.4315,-4.4302,-4.4283,-4.4276,-4.4229,-4.4309,-4.4319,-4.4391,-4.4241,-4.4513,-4.4523,-4.4533,-4.4675,-4.4699,-4.4719,0,0,0,0,0,-4.4299,-4.4402,-4.4362,-4.437,-4.4394,-4.444,-4.4443,-4.4387,-4.4322,-4.4369,-4.4343,-4.4276,-4.4379,-4.4318,-4.4328,-4.4403,-4.4508,-4.452,-4.4532,-4.4665,-4.4694,-4.4719,0,0,0,0,0,0,-4.444,-4.4398,-4.4352,-4.445,-4.445,-4.4418,-4.4475,-4.442,-4.4438,-4.4425,-4.4355,-4.4352,-4.4441,-4.4429,-4.4362,-4.4525,-4.4432,-4.4446,-4.4529,-4.4557,-4.4578,-4.458,-4.4245,0,0,0,0,0,-4.4482,-4.4522,-4.4483,-4.4574,-4.4576,-4.4526,-4.4544,-4.4501,-4.4498,-4.4497,-4.4476,-4.4477,-4.4509,-4.4532,-4.456,-4.4672,-4.4667,-4.4729,-4.4751,-4.477,-4.4784,-4.4843,-4.4871,-4.4578,-4.4578,-4.4578,0,0,-4.4571,-4.4552,-4.4582,-4.4601,-4.4596,-4.464,-4.4527,-4.4578,-4.461,-4.4505,-4.4577,-4.4562,-4.4558,-4.4654,-4.4695,-4.4647,-4.4863,-4.4785,-4.48,-4.4804,-4.4859,-4.4886,-4.4911,-4.4586,-4.4585,-4.4583,0,0,-4.4753,-4.4744,-4.4818,-4.4815,-4.4808,-4.4774,-4.4792,-4.4769,-4.4755,-4.4825,-4.4748,-4.4786,-4.4842,-4.4843,-4.4851,-4.5036,-4.4976,-4.5047,-4.5163,-4.5222,-4.5246,-4.5266,-4.5332,-4.5357,-4.506,-4.5061,-4.5061,0,-4.4864,-4.4926,-4.4863,-4.492,-4.4931,-4.4837,-4.4913,-4.4913,-4.4916,-4.4927,-4.4873,-4.4943,-4.4934,-4.5029,-4.5074,-4.5083,-4.5102,-4.5048,-4.5247,-4.5267,-4.5285,-4.5347,-4.5373,-4.507,-4.5069,-4.5068,-4.5067,0,-4.5063,-4.5108,-4.5169,-4.5173,-4.5191,-4.5257,-4.5205,-4.5231,-4.5187,-4.516,-4.5233,-4.5219,-4.5242,-4.5262,-4.5219,-4.5351,-4.5322,-4.5259,-4.5164,-4.5322,-4.538,-4.5404,-4.5082,-4.5079,-4.5076,-4.5074,0,0,-4.5335,-4.5303,-4.5327,-4.5328,-4.5314,-4.5348,-4.541,-4.5432,-4.5456,-4.5462,-4.5513,-4.5563,-4.5505,-4.5514,-4.5471,-4.5523,-4.5671,-4.5453,-4.5452,-4.5495,-4.5817,-4.5865,-4.5894,-4.5631,-4.5635,-4.5639,-4.5818,0,-4.5511,-4.5614,-4.556,-4.5671,-4.5712,-4.5624,-4.5678,-4.5676,-4.5653,-4.5685,-4.5659,-4.5696,-4.5616,-4.5621,-4.5668,-4.5643,-4.5735,-4.5629,-4.5679,-4.5681,-4.5683,-4.5924,-4.5975,-4.6144,-4.584,-4.5844,-4.5846,0,-4.5731,-4.5745,-4.5861,-4.5839,-4.5854,-4.5904,-4.592,-4.5952,-4.5948,-4.5927,-4.5938,-4.5883,-4.5943,-4.5849,-4.5932,-4.5862,-4.5879,-4.587,-4.5875,-4.5878,-4.5774,-4.5934,-4.6197,-4.6223,-4.5881,-4.5878,-4.5876,0,-4.5919,-4.5967,-4.6042,-4.6045,-4.6022,-4.606,-4.6052,-4.6043,-4.606,-4.6075,-4.6085,-4.6107,-4.612,-4.6139,-4.6091,-4.6027,-4.6182,-4.6083,-4.6167,-4.6169,-4.6204,-4.6202,-4.6474,-4.6214,-4.6214,-4.6214,-4.6213,0,-4.6122,-4.6196,-4.6125,-4.6172,-4.6253,-4.619,-4.6272,-4.6255,-4.6248,-4.629,-4.6216,-4.6258,-4.6192,-4.6228,-4.6191,-4.6266,-4.6272,-4.6258,-4.6247,-4.6265,-4.6267,-4.6276,-4.6263,-4.622,-4.6219,-4.6217,-4.6216,0,-4.6345,-4.63,-4.6377,-4.6349,-4.6343,-4.6404,-4.6381,-4.6423,-4.6395,-4.6449,-4.6459,-4.6414,-4.6452,-4.6407,-4.6441,-4.6416,-4.6519,-4.649,-4.652,-4.6512,-4.6599,-4.6592,-4.6886,-4.6922,-4.6639,-4.6642,-4.6644,0,-4.6478,-4.6532,-4.6511,-4.6533,-4.653,-4.6567,-4.6584,-4.6525,-4.6546,-4.6546,-4.6589,-4.6621,-4.6643,-4.6708,-4.6679,-4.6706,-4.6678,-4.6779,-4.6681,-4.6697,-4.668,-4.6678,-4.6683,-4.6799,-4.6803,-4.6805,-4.6808,0,-4.6719,-4.6694,-4.6721,-4.6741,-4.6763,-4.6776,-4.6783,-4.6806,-4.6744,-4.6772,-4.6809,-4.6826,-4.6861,-4.6894,-4.6913,-4.6905,-4.6848,-4.6839,-4.686,-4.6878,-4.6893,-4.6887,-4.6575,-4.6832,-4.683,-4.6828,-4.6827,-4.6826,-4.6901,-4.6946,-4.6937,-4.697,-4.6969,-4.6978,-4.7017,-4.6993,-4.7023,-4.7046,-4.7009,-4.7057,-4.7053,-4.7071,-4.7071,-4.7109,-4.7065,-4.7095,-4.7103,-4.7112,-4.7125,-4.6887,-4.7112,-4.7111,-4.711,-4.7109,-4.7109,0,-4.7138,-4.7129,-4.7159,-4.7172,-4.7198,-4.714,-4.7145,-4.7171,-4.7214,-4.7214,-4.7237,-4.7281,-4.7313,-4.7287,-4.7314,-4.7349,-4.7323,-4.7358,-4.7355,-4.7355,-4.7162,-4.7141,-4.7379,-4.7378,-4.7378,-4.7378,-4.7378,-4.7378,-4.7265,-4.7338,-4.7313,-4.7386,-4.7375,-4.7421,-4.7429,-4.7437,-4.7438,-4.749,-4.7515,-4.7498,-4.7489,-4.7514,-4.7541,-4.7533,-4.7546,-4.7591,-4.7574,-4.7395,-4.7368,-4.7343,-4.7323,-4.7595,-4.7595,-4.7763,-4.7765,-4.7766]},{"header":{"parameterUnit":"m.s-1","parameterCategory":1,"la1":30.2991,"la2":30.254,"lo1":-89.0895,"lo2":-89.0444,"dy":0.0017,"dx":0.0017,"nx":28,"ny":28,"refTime":"2025-01-25T09:00:00:Z","depth":0,"parameterNumber":3,"parameterNumberName":"V-component_of_WINDS"},"data":[0,0,0,0,0,0,0,0,0,0,0,0,0,0,0,0,0,0,0,0,0,0,0,0,0,0,0,0,0,0,0,0,0,0,0,0,0,0,0,0,0,0,0,0,0,0,0,0,0,0,0,0,0,0,0,0,0,0,-0.0815,-0.0815,0,-0.0863,-0.0864,-0.0864,-0.0812,-0.081,-0.0808,-0.0806,-0.0863,-0.0866,-0.0869,0,0,0,0,0,0,0,0,0,0,0,0,0,-0.0683,-0.0686,-0.0815,-0.0815,-0.0816,-0.0863,-0.0864,-0.0864,-0.0812,-0.081,-0.0807,-0.0805,-0.0862,-0.0866,-0.087,0,0,0,0,0,0,0,0,0,0,0,0,0,-0.0737,-0.0687,-0.0814,-0.0795,-0.0794,-0.0863,-0.0864,-0.0864,-0.0813,-0.081,-0.0807,-0.0804,-0.086,-0.0865,-0.087,-0.0963,0,0,-0.0886,-0.0888,0,0,0,0,0,0,0,0,-0.0734,-0.0742,-0.0797,-0.0797,-0.0795,-0.0828,-0.0838,-0.0898,-0.0813,-0.0806,-0.0806,-0.0802,-0.0854,-0.086,-0.0876,-0.0965,-0.0968,-0.0886,-0.0889,-0.0892,-0.0893,0,0,0,0,0,0,0,-0.073,-0.0739,-0.0834,-0.0798,-0.0797,-0.0786,-0.0791,-0.0849,-0.0847,-0.0806,-0.0802,-0.0809,-0.0853,-0.0871,-0.0877,-0.0969,-0.0886,-0.0891,-0.0894,-0.0896,-0.1137,-0.114,0,0,0,0,0,0,-0.0728,-0.0737,-0.0832,-0.0835,-0.0756,-0.0791,-0.0796,-0.0821,-0.0846,-0.0847,-0.0811,-0.0806,-0.0864,-0.0871,-0.0878,-0.0988,-0.0892,-0.0896,-0.0899,-0.1134,-0.1138,-0.1141,0,0,0,0,0,0,-0.0725,-0.0737,-0.083,-0.0785,-0.0796,-0.0796,-0.0825,-0.0823,-0.0841,-0.0849,-0.0849,-0.0829,-0.0861,-0.0871,-0.0942,-0.099,-0.0899,-0.0903,-0.113,-0.1135,-0.114,-0.1209,0,0,0,0,0,0,-0.0722,-0.0736,-0.077,-0.0786,-0.0799,-0.0891,-0.0828,-0.0827,-0.0849,-0.0843,-0.0866,-0.0868,-0.086,-0.0934,-0.0947,-0.0995,-0.0907,-0.1126,-0.1132,-0.1138,-0.1203,-0.1216,-0.1227,0,0,0,0,0,-0.0717,-0.0789,-0.0772,-0.0784,-0.084,-0.0894,-0.0901,-0.0889,-0.0853,-0.0888,-0.0893,-0.0867,-0.0982,-0.0942,-0.0956,-0.1006,-0.1122,-0.113,-0.1138,-0.1197,-0.1213,-0.1227,0,0,0,0,0,0,-0.0781,-0.0791,-0.0772,-0.0851,-0.0872,-0.0885,-0.0929,-0.0907,-0.094,-0.0933,-0.0918,-0.0924,-0.0999,-0.1009,-0.0965,-0.1097,-0.1047,-0.1057,-0.1087,-0.1103,-0.1115,-0.1111,-0.0912,0,0,0,0,0,-0.0804,-0.0845,-0.0852,-0.0921,-0.0932,-0.0929,-0.0951,-0.094,-0.0962,-0.0971,-0.0982,-0.1006,-0.1048,-0.1076,-0.1114,-0.1203,-0.1209,-0.1245,-0.1257,-0.1267,-0.1277,-0.1326,-0.1342,-0.1166,-0.1166,-0.1166,0,0,-0.0853,-0.0863,-0.089,-0.0934,-0.0949,-0.0993,-0.0936,-0.0986,-0.1019,-0.0979,-0.1046,-0.1055,-0.1081,-0.1161,-0.1197,-0.1172,-0.1327,-0.1277,-0.1285,-0.1289,-0.1335,-0.1352,-0.1366,-0.1171,-0.117,-0.1169,0,0,-0.0964,-0.0975,-0.1034,-0.1049,-0.1071,-0.1068,-0.1082,-0.1099,-0.1102,-0.1168,-0.1139,-0.118,-0.1252,-0.1271,-0.1291,-0.1409,-0.1386,-0.1422,-0.1487,-0.1535,-0.1548,-0.1561,-0.1604,-0.1619,-0.1431,-0.1432,-0.1432,0,-0.1022,-0.1085,-0.1067,-0.1118,-0.1139,-0.1102,-0.1162,-0.1179,-0.1214,-0.123,-0.1201,-0.129,-0.1305,-0.139,-0.1418,-0.1435,-0.1452,-0.142,-0.1547,-0.1559,-0.1571,-0.1612,-0.1628,-0.1436,-0.1435,-0.1435,-0.1435,0,-0.1156,-0.1201,-0.1246,-0.1277,-0.1303,-0.1359,-0.1351,-0.138,-0.1366,-0.1366,-0.1435,-0.1451,-0.1493,-0.1512,-0.15,-0.1595,-0.1579,-0.1549,-0.1499,-0.1592,-0.163,-0.1646,-0.1442,-0.144,-0.1439,-0.1438,0,0,-0.1311,-0.133,-0.1347,-0.1361,-0.1382,-0.1417,-0.1472,-0.151,-0.1535,-0.156,-0.1607,-0.1668,-0.164,-0.1662,-0.1652,-0.1693,-0.1786,-0.1658,-0.1659,-0.1683,-0.1894,-0.1917,-0.1935,-0.1771,-0.1774,-0.1776,-0.1892,0,-0.1422,-0.1514,-0.1499,-0.1589,-0.163,-0.1595,-0.1643,-0.1663,-0.1665,-0.1702,-0.1705,-0.1749,-0.1708,-0.1721,-0.1761,-0.1767,-0.1829,-0.1758,-0.1816,-0.1819,-0.1812,-0.1955,-0.1979,-0.2088,-0.1906,-0.1909,-0.1911,0,-0.1565,-0.1593,-0.1686,-0.17,-0.1717,-0.176,-0.1793,-0.1829,-0.1851,-0.1849,-0.1874,-0.1856,-0.1912,-0.1859,-0.1938,-0.189,-0.1913,-0.192,-0.1924,-0.193,-0.1871,-0.1966,-0.2122,-0.2139,-0.1934,-0.1932,-0.193,0,-0.1669,-0.173,-0.1793,-0.1806,-0.1824,-0.1855,-0.1865,-0.1883,-0.1907,-0.1937,-0.1953,-0.199,-0.2011,-0.2041,-0.2035,-0.1997,-0.2116,-0.2062,-0.2118,-0.2118,-0.2146,-0.2144,-0.2309,-0.2159,-0.2159,-0.2158,-0.2158,0,-0.1796,-0.1855,-0.184,-0.1879,-0.1944,-0.1927,-0.1993,-0.1999,-0.2015,-0.2057,-0.2029,-0.2069,-0.2057,-0.2097,-0.2093,-0.2159,-0.2169,-0.2171,-0.2169,-0.2174,-0.2174,-0.219,-0.2183,-0.2163,-0.2162,-0.2161,-0.216,0,-0.1924,-0.1916,-0.1983,-0.1994,-0.1998,-0.2046,-0.2056,-0.2094,-0.2093,-0.2146,-0.2157,-0.2157,-0.2203,-0.2198,-0.2251,-0.2247,-0.233,-0.2319,-0.2322,-0.232,-0.2376,-0.2372,-0.2558,-0.2582,-0.2415,-0.2417,-0.2418,0,-0.2006,-0.205,-0.2064,-0.2089,-0.21,-0.214,-0.2163,-0.2148,-0.2174,-0.2202,-0.2237,-0.2279,-0.2313,-0.2387,-0.2394,-0.2434,-0.2424,-0.2486,-0.243,-0.2433,-0.2426,-0.2424,-0.2429,-0.2498,-0.25,-0.2502,-0.2503,0,-0.2152,-0.2146,-0.2179,-0.2212,-0.224,-0.2265,-0.2288,-0.231,-0.2298,-0.2329,-0.2373,-0.2399,-0.2451,-0.2494,-0.2532,-0.2544,-0.2523,-0.252,-0.2535,-0.2541,-0.2542,-0.2543,-0.2354,-0.2516,-0.2515,-0.2514,-0.2513,-0.2513,-0.226,-0.2298,-0.2314,-0.2352,-0.2367,-0.2389,-0.2425,-0.2427,-0.2464,-0.2503,-0.2492,-0.2544,-0.2565,-0.2613,-0.2629,-0.267,-0.2648,-0.2669,-0.2675,-0.2681,-0.2688,-0.2534,-0.2677,-0.2676,-0.2676,-0.2676,-0.2675,0,-0.2406,-0.2414,-0.2449,-0.2481,-0.2512,-0.2485,-0.2509,-0.2537,-0.2582,-0.2602,-0.2635,-0.2687,-0.2728,-0.2737,-0.2777,-0.2809,-0.28,-0.282,-0.2819,-0.2822,-0.2705,-0.2688,-0.2827,-0.2827,-0.2827,-0.2827,-0.2827,-0.2827,-0.2486,-0.2547,-0.2543,-0.2613,-0.2621,-0.2669,-0.2685,-0.2706,-0.2722,-0.278,-0.2813,-0.2818,-0.2834,-0.2875,-0.2913,-0.2915,-0.2932,-0.2956,-0.2954,-0.2845,-0.283,-0.2816,-0.28,-0.2959,-0.296,-0.3068,-0.3069,-0.3069]}]]